Theta_e
318 317 319 320 317 314 314 315 314 312 317 317 316 316 315 314 312 312 313 312 311 311 309 308 307 307 308 308 309 309 310 311 313 314 321 323 325 327 329 329 329 329 330 330
318 315 316 317 318 317 317 317 316 317 317 317 316 316 314 313 314 312 312 311 311 308 307 305 304 304 304 304 305 306 309 312 314 317 323 325 322 319 323 323 324 322 324 324
316 315 315 315 315 317 316 316 316 316 316 315 312 310 310 310 312 312 311 310 310 309 306 303 302 302 302 301 301 303 306 310 312 316 323 320 316 314 315 314 313 311 312 312
316 314 316 317 317 315 317 315 316 318 317 316 313 311 311 311 311 313 312 308 308 306 303 301 300 299 299 299 300 300 303 306 308 312 318 319 312 307 303 303 303 302 301 302
314 315 315 317 317 316 317 316 316 317 318 316 315 312 309 310 312 312 309 308 306 304 302 300 298 298 297 298 299 299 299 302 304 306 307 308 306 304 301 301 300 298 296 296
314 314 314 315 315 314 315 316 316 315 314 312 315 310 306 312 312 310 310 307 305 302 299 298 297 296 296 296 296 297 297 296 299 301 302 303 302 300 300 298 298 294 293 292
316 316 316 315 317 316 316 315 315 310 316 314 311 314 311 309 310 310 311 306 303 301 298 296 295 295 295 294 294 295 295 293 294 297 297 296 295 295 294 293 292 291 291 290
316 317 317 315 316 318 317 315 312 310 315 314 311 315 311 309 309 309 310 306 302 300 298 296 295 294 294 293 293 293 293 293 292 292 293 292 292 292 291 290 290 289 289 289
313 314 313 315 314 316 318 319 313 314 301 310 310 310 308 310 310 308 306 304 302 300 298 296 294 294 293 293 292 292 292 291 290 290 290 290 290 289 289 288 288 288 287 288
313 315 313 314 314 313 316 314 317 313 307 310 309 310 309 309 309 308 305 304 302 300 298 295 293 293 293 292 291 291 290 290 290 289 288 288 288 287 287 287 287 287 287 287
310 313 315 314 317 316 315 315 315 313 309 311 311 310 304 310 308 308 306 305 302 300 299 295 294 293 293 291 290 290 289 289 288 288 287 287 286 286 286 286 286 286 286 286
311 314 318 317 311 312 313 314 314 312 311 308 310 310 307 307 307 307 306 305 303 301 298 295 295 294 292 291 290 289 288 288 287 287 286 286 285 285 285 285 285 285 285 285
312 313 314 315 314 310 315 314 313 311 310 314 312 309 305 305 305 306 306 305 303 301 299 295 293 292 292 291 290 288 288 287 286 285 285 284 284 284 284 283 283 284 284 284
312 312 311 311 311 311 313 313 312 313 311 313 312 311 309 308 308 306 305 304 303 302 300 296 293 292 292 291 290 288 287 286 285 284 284 283 283 283 283 283 283 283 283 283
311 313 311 310 309 309 311 311 311 313 313 313 311 310 309 308 307 306 304 304 303 302 301 299 296 293 291 291 290 288 287 285 284 284 283 282 282 282 282 282 282 282 281 282
310 311 312 310 309 307 307 307 309 310 309 310 310 310 307 306 304 303 302 301 300 300 299 299 298 296 293 291 289 287 286 284 283 283 282 281 281 281 281 281 281 281 280 280
310 304 303 301 303 303 300 302 305 306 306 307 308 307 305 303 301 300 299 299 299 299 299 298 297 298 298 293 290 286 284 284 283 282 281 280 280 280 280 280 280 279 279 279
306 303 298 296 296 301 303 299 304 305 305 304 304 302 302 301 300 299 299 300 299 298 297 295 294 296 296 292 287 284 284 282 282 281 280 280 279 279 279 280 279 279 279 278
304 303 300 298 288 299 300 300 302 303 302 301 301 301 300 298 297 295 296 296 296 293 290 288 287 289 289 287 285 284 281 281 281 280 279 279 279 279 279 279 278 278 278 277
302 302 300 289 297 299 299 300 298 298 301 298 298 298 297 296 297 295 296 293 290 287 286 285 285 285 285 283 282 282 280 280 279 278 278 278 278 278 278 278 278 277 277 277
295 294 299 290 296 295 297 296 297 299 300 297 296 296 295 295 295 293 291 289 288 286 284 282 282 282 281 281 281 280 279 278 278 278 278 278 278 277 277 277 277 276 276 275
302 300 299 300 296 304 295 296 299 299 296 295 294 294 294 293 292 291 288 288 284 282 280 280 280 279 279 280 280 278 278 278 278 277 277 276 276 276 276 276 276 276 275 275
301 300 298 300 301 298 293 297 295 294 295 296 295 293 292 293 294 293 289 285 282 281 279 279 279 277 278 278 279 278 277 277 276 276 275 275 275 275 275 275 275 274 274 273
295 291 295 295 297 296 295 294 293 293 293 293 292 293 291 293 291 290 287 283 280 279 277 277 277 276 276 277 277 278 276 276 275 275 274 275 275 274 274 274 274 273 272 271
294 293 292 291 294 290 292 293 294 293 291 292 291 291 290 289 289 287 285 282 279 277 277 276 276 275 275 275 276 276 275 275 274 274 273 273 274 273 273 272 271 270 270 270
290 293 297 297 292 293 296 294 290 291 292 291 290 286 283 285 285 282 281 281 278 275 275 274 274 274 273 274 274 274 274 274 274 273 273 273 273 272 271 270 270 270 271 271
Wind_Speed
2 4 8 10 6 4 5 3 4 3 3 5 6 7 10 11 7 8 9 8 7 3 8 12 11 8 7 7 7 7 7 8 9 6 2 2 3 8 9 8 5 4 3 3
3 6 7 4 5 3 0 1 3 1 1 2 4 10 11 10 10 11 13 9 8 7 5 9 11 11 12 11 10 10 10 9 8 5 1 3 9 13 12 11 11 9 7 4
6 4 10 6 5 6 4 5 2 1 2 2 4 8 5 6 11 9 7 7 6 14 10 6 10 11 10 11 12 12 11 9 8 5 7 14 16 14 13 11 11 9 7 5
4 5 7 5 6 6 6 6 5 3 3 3 3 5 5 5 6 2 6 6 9 11 8 7 10 10 10 10 11 11 10 10 9 7 8 9 11 11 11 11 10 9 8 7
7 4 5 4 5 4 4 4 6 4 2 3 1 1 7 3 6 3 5 7 8 8 8 7 10 11 10 9 11 9 8 9 9 9 9 11 13 13 11 9 8 8 8 7
5 1 5 8 3 5 5 5 5 4 3 3 8 7 5 3 4 3 4 5 7 8 7 8 11 10 10 8 7 7 8 9 8 9 10 9 10 10 9 7 7 7 8 8
3 2 1 2 6 1 3 5 2 3 1 6 1 4 6 6 3 7 12 9 8 7 7 6 8 7 8 6 5 5 5 8 7 8 10 10 10 10 10 9 9 8 8 9
7 5 8 5 6 6 7 5 5 7 5 3 2 6 5 5 3 1 5 8 8 6 6 6 8 8 8 7 6 5 4 5 6 7 9 9 9 9 10 9 8 8 9 9
6 5 0 1 4 9 5 5 5 4 3 2 4 5 8 2 5 5 7 7 5 6 7 7 10 11 11 10 9 8 7 5 5 6 8 8 8 8 9 8 8 8 8 9
6 3 2 2 3 2 5 7 2 2 2 4 3 3 4 2 4 3 6 7 8 6 6 7 13 15 13 11 10 10 9 8 7 6 6 7 7 7 7 7 8 9 10 11
3 4 2 5 7 9 4 3 3 4 4 3 1 4 5 2 3 8 8 8 8 9 9 7 13 14 13 13 13 12 12 10 9 8 8 7 7 7 7 8 9 10 11 12
2 3 3 5 2 4 3 5 6 4 4 3 3 4 1 0 4 7 8 6 5 6 8 7 14 17 17 18 17 15 13 12 10 10 9 9 8 8 7 8 9 10 12 11
5 4 2 2 3 3 4 4 4 4 2 5 4 4 1 7 7 6 6 6 7 9 8 7 13 19 23 23 22 19 16 14 12 12 11 10 9 9 9 9 10 11 12 13
11 4 5 5 2 5 5 6 7 6 4 3 7 3 5 4 3 4 4 7 8 7 7 6 8 17 23 26 26 22 19 16 15 13 11 10 9 9 9 10 11 11 12 13
6 5 6 3 5 4 4 11 15 15 13 10 3 7 7 9 6 7 7 3 3 7 8 9 10 12 21 26 26 25 21 19 17 16 13 12 10 10 10 11 12 12 12 13
8 2 3 1 3 1 3 6 7 6 4 7 8 13 8 9 6 7 8 8 8 9 9 9 7 14 20 26 28 28 26 23 20 17 15 13 12 12 12 12 12 12 13 13
8 6 3 3 1 2 6 7 7 5 6 8 8 10 4 7 7 8 8 8 9 10 9 8 8 16 23 25 26 28 28 24 21 18 16 15 14 14 14 14 13 12 11 12
7 5 3 3 2 2 5 2 8 15 13 10 8 6 11 7 7 6 7 8 9 7 7 7 11 16 13 15 20 23 26 24 21 18 17 16 16 15 15 14 12 11 11 11
5 5 3 4 4 5 4 4 7 8 11 12 11 13 7 5 2 6 9 5 6 4 4 8 11 8 5 13 19 25 26 24 21 19 17 16 14 14 14 13 12 12 10 10
4 4 4 2 5 8 5 8 6 4 11 10 11 11 9 5 3 4 5 4 5 5 7 7 5 4 10 16 21 26 25 23 20 18 17 16 15 14 12 11 11 10 10 10
2 2 7 4 3 8 8 5 6 5 7 8 8 8 6 6 7 4 5 4 6 7 6 4 4 7 11 17 21 22 22 19 19 18 18 17 15 14 13 12 12 11 12 12
8 6 4 3 2 13 9 3 12 14 3 6 6 6 7 7 6 6 8 7 8 8 6 7 8 10 14 19 21 20 20 19 18 19 19 18 17 16 15 14 11 12 12 13
3 7 6 10 8 4 7 10 10 3 5 5 5 7 8 7 6 7 7 8 11 14 12 12 13 15 16 17 18 20 19 20 21 21 21 20 17 15 14 15 14 12 12 11
4 2 3 4 8 10 6 7 6 6 8 8 7 7 7 8 9 9 6 6 8 17 18 18 18 18 17 17 17 17 22 22 23 23 22 20 19 18 15 14 12 11 12 11
5 8 6 5 11 2 7 9 11 11 7 7 7 8 11 8 9 8 6 7 13 17 19 21 22 21 21 19 18 20 23 25 25 23 21 19 19 18 16 13 12 11 9 7
6 8 8 9 6 6 10 10 8 12 12 13 11 6 6 7 8 4 6 13 17 18 21 22 22 22 22 21 21 23 25 26 26 24 22 21 20 18 17 17 15 9 9 7
Wind_Direction
163 115 204 198 154 117 130 180 231 236 231 152 220 259 264 274 288 272 265 247 237 154 124 109 100 93 82 59 33 13 356 350 331 319 291 196 150 114 122 133 144 209 159 135
69 220 221 211 209 203 208 189 265 40 347 147 270 262 252 245 248 224 233 232 231 130 121 100 90 77 67 63 56 44 37 25 18 11 134 118 125 110 116 110 103 93 89 84
171 238 200 191 194 193 194 177 200 68 347 290 341 288 270 273 244 232 216 202 193 160 146 116 96 85 80 71 59 48 43 39 34 45 131 128 121 114 106 100 95 80 71 63
229 251 178 176 201 151 178 196 158 121 56 241 41 288 298 272 297 214 201 138 125 131 122 123 118 99 84 78 69 58 50 52 54 71 150 176 148 120 106 107 95 80 70 64
228 209 184 173 184 150 194 171 173 142 141 13 212 233 273 281 286 223 124 125 121 119 126 129 126 119 106 84 69 66 66 68 68 79 99 119 121 119 124 115 101 82 76 80
202 231 179 187 123 152 153 90 54 65 83 300 205 175 274 225 213 118 124 130 133 133 131 133 135 129 104 95 92 83 77 79 82 91 98 108 120 131 134 120 110 96 87 82
156 254 246 168 108 109 128 115 53 2 213 232 119 171 262 277 244 179 169 164 160 149 145 155 145 131 128 127 110 95 90 89 94 101 104 106 114 124 121 114 109 100 87 77
162 197 189 192 173 169 176 178 158 195 191 236 79 219 247 264 306 31 136 135 138 153 155 166 165 168 158 152 146 151 143 126 119 113 111 115 119 118 115 112 107 101 85 81
149 229 311 152 138 148 184 192 170 99 20 60 221 287 308 121 52 88 122 114 132 169 181 182 180 184 183 180 178 180 174 160 139 126 127 126 124 123 116 114 109 104 109 99
186 115 220 149 108 85 166 150 109 60 156 242 271 270 237 308 220 117 129 157 193 198 199 198 195 194 193 195 192 189 189 184 170 162 143 130 127 124 123 124 115 110 107 110
158 108 169 150 214 171 148 177 179 141 161 178 191 255 215 253 193 163 190 201 198 204 212 209 204 203 200 202 203 199 195 189 178 170 163 154 144 140 136 128 120 118 119 119
154 81 179 191 337 248 169 174 165 143 225 239 142 267 98 340 159 163 191 216 233 234 225 215 208 207 207 208 210 207 201 196 193 182 177 165 155 147 136 130 128 130 124 120
153 126 174 121 296 359 198 206 169 130 95 206 153 251 76 109 101 115 141 177 211 225 227 212 206 208 213 215 213 208 205 201 194 189 182 168 160 156 147 138 134 132 129 124
131 171 207 197 151 130 198 189 200 190 208 162 221 220 269 273 141 188 280 253 243 242 244 220 223 221 218 220 217 210 204 201 194 188 181 171 163 158 150 143 137 134 133 132
118 199 189 141 133 135 201 214 213 216 226 230 192 220 232 275 277 247 239 260 268 273 271 240 235 226 223 224 220 214 206 196 194 187 180 174 167 159 151 145 142 138 135 131
163 183 168 334 358 210 222 220 207 218 203 249 242 258 231 254 253 273 287 286 290 280 270 270 250 240 229 223 217 211 199 192 193 188 180 173 167 160 155 148 145 139 128 123
177 136 125 231 292 73 316 214 201 203 206 201 223 229 249 250 250 255 261 259 261 269 274 278 265 262 254 237 220 204 193 187 184 183 178 175 172 166 160 153 148 140 129 127
150 113 94 161 37 283 236 334 216 214 226 220 245 261 240 235 248 258 250 248 267 269 280 299 307 304 284 234 201 192 187 182 179 179 179 178 175 170 164 159 149 139 131 120
132 124 110 141 196 305 278 218 169 169 245 230 229 248 238 234 167 270 236 219 235 245 268 284 304 296 227 189 186 179 176 176 177 178 177 177 176 167 163 155 147 144 138 128
74 77 130 122 158 215 232 204 163 102 257 228 204 230 242 136 251 243 224 207 217 249 279 293 289 200 179 175 180 174 171 174 175 175 169 169 170 166 162 157 148 144 139 128
96 39 184 175 208 279 241 234 116 145 240 205 195 217 203 185 212 182 152 212 226 241 257 259 224 198 180 174 173 166 166 169 172 170 167 163 165 162 158 153 149 148 150 139
162 149 179 116 112 262 178 66 178 223 125 158 190 210 220 230 253 209 207 219 205 213 198 203 183 178 174 177 172 167 165 172 171 168 163 161 157 157 153 152 156 156 149 149
206 183 179 184 209 215 196 205 222 162 213 213 198 219 211 225 242 242 221 202 199 203 202 197 186 170 175 181 185 171 172 172 169 165 160 159 154 154 157 161 156 160 160 157
259 151 192 91 244 219 212 237 244 194 223 224 218 208 194 229 232 231 210 202 189 190 193 196 183 177 174 184 186 190 174 173 168 165 165 162 160 155 164 164 165 167 164 155
192 147 182 254 271 52 236 227 226 234 244 258 244 229 222 208 237 223 222 204 194 190 195 196 191 184 183 184 184 181 176 172 167 167 164 162 163 160 164 164 163 156 144 148
186 194 189 220 211 171 248 243 199 216 230 231 224 236 227 192 223 185 224 204 187 182 189 188 194 188 183 182 180 176 175 175 170 165 166 170 170 171 168 159 144 137 135 134